Regional Weather Roundup
Issued by NWS

Home | Current Version | Previous Version | Graphics & Text | Print | Product List | Glossary Off
Versions: 1 2 3 4 5 6 7 8 9 10 11 12 13 14 15 16 17 18 19 20 21 22 23 24 25 26 27 28 29 30 31 32 33 34 35 36 37 38 39 40 41 42 43 44 45 46 47 48 49 50

000
ASUS43 KBIS 141010
RWRND

NORTH DAKOTA REGIONAL WEATHER ROUNDUP
NATIONAL WEATHER SERVICE BISMARCK ND
400 AM CST SUN FEB 14 2016

NOTE: "FAIR" INDICATES FEW OR NO CLOUDS BELOW 12,000 FEET WITH NO
SIGNIFICANT WEATHER AND/OR OBSTRUCTIONS TO VISIBILITY.


NDZ001>003-009>011-017-141100-
NORTHWEST NORTH DAKOTA

CITY           SKY/WX    TMP DP  RH WIND       PRES   REMARKS
WILLISTON      CLOUDY    35  30  82 W8        29.77F
MINOT          CLOUDY    24  19  81 NW6       29.73S WCI  17
MINOT AFB      CLOUDY    18  18 100 CALM      29.72F
$$

NDZ018>021-031>035-040>046-141100-
SOUTHWEST NORTH DAKOTA

CITY           SKY/WX    TMP DP  RH WIND       PRES   REMARKS
BISMARCK       CLOUDY    22  18  85 CALM      29.79S FOG
DICKINSON      CLOUDY    32  29  88 NW14      29.74F
GARRISON         N/A     26  24  92 NW17      29.73F WCI  13
HETTINGER ARPT PTCLDY    33  29  85 NW16      29.79F
$$

NDZ004>008-012>016-024-026-027-054-141100-
NORTHEAST NORTH DAKOTA

CITY           SKY/WX    TMP DP  RH WIND       PRES   REMARKS
GRAND FORKS    MIX PCPN  14   8  77 S21G28    29.92F WCI  -4
GRND FRKS AFB  CLOUDY    12   7  80 S16       29.90F WCI  -5
DEVILS LAKE    FLURRIES  13  10  88 S18       29.79F WCI  -4
$$

NDZ022-023-025-028>030-036>039-047>053-141100-
SOUTHEAST NORTH DAKOTA

CITY           SKY/WX    TMP DP  RH WIND       PRES   REMARKS
FARGO          LGT SNOW  14   8  77 S22G30    29.95F WCI  -4
JAMESTOWN      LGT SNOW  13   9  84 S20       29.81F FOG     WCI  -5
$$




USA.gov is the U.S. government's official web portal to all federal, state and local government web resources and services.